contact:dominique.lefevre@mio.osupytheas.fr, maurice.libes@osupytheas.fr, didier.mallarino@osupytheas.fr
Project:EMSO http://www.emso-fr.org/EMSO-France
Depth: 2436.0 m
Title:EMSO Ligure Ouest : Data MII capteur CSTAR
DateTime,Latitude,Longitude,Instrument_Serial,Reference_Counts,Signal_Counts,Corrected_Signal_raw_counts,Calculated_Beam_c_inverse_meters,Internal_thermistor_counts
DateTime,Latitude,Longitude,Instrument_Serial,Reference_Counts,Signal_Counts,Corrected_Signal_raw_counts,Calculated_Beam_c_inverse_meters,Internal_thermistor_counts
2022-02-07T00:00:18,42.805,6.029,CST-1368DR,4915,6170,13406,0.610,551
2022-02-07T00:03:19,42.805,6.029,CST-1368DR,4915,6170,13406,0.610,551
2022-02-07T00:06:21,42.805,6.029,CST-1368DR,4915,6165,13395,0.614,551
2022-02-07T00:09:23,42.805,6.029,CST-1368DR,4915,6171,13407,0.610,551
2022-02-07T00:12:24,42.805,6.029,CST-1368DR,4915,6170,13405,0.611,551
2022-02-07T00:15:26,42.805,6.029,CST-1368DR,4915,6170,13406,0.610,551
2022-02-07T00:18:27,42.805,6.029,CST-1368DR,4915,6170,13406,0.610,551
2022-02-07T00:21:29,42.805,6.029,CST-1368DR,4915,6171,13408,0.610,551
2022-02-07T00:24:30,42.805,6.029,CST-1368DR,4915,6170,13406,0.610,551
2022-02-07T00:27:32,42.805,6.029,CST-1368DR,4915,6170,13405,0.611,551
2022-02-07T00:30:34,42.805,6.029,CST-1368DR,4915,6170,13405,0.611,551
2022-02-07T00:33:35,42.805,6.029,CST-1368DR,4915,6170,13406,0.610,551
2022-02-07T00:36:37,42.805,6.029,CST-1368DR,4915,6170,13406,0.610,551
2022-02-07T00:39:38,42.805,6.029,CST-1368DR,4915,6170,13405,0.611,551
2022-02-07T00:42:40,42.805,6.029,CST-1368DR,4915,6171,13407,0.610,551
2022-02-07T00:45:42,42.805,6.029,CST-1368DR,4915,6170,13405,0.611,551
2022-02-07T00:48:43,42.805,6.029,CST-1368DR,4915,6170,13406,0.610,550
2022-02-07T00:51:45,42.805,6.029,CST-1368DR,4915,6170,13406,0.610,551
2022-02-07T00:54:46,42.805,6.029,CST-1368DR,4915,6170,13406,0.610,551
2022-02-07T00:57:48,42.805,6.029,CST-1368DR,4915,6169,13404,0.611,551
2022-02-07T01:00:49,42.805,6.029,CST-1368DR,4915,6168,13400,0.612,551
2022-02-07T01:03:51,42.805,6.029,CST-1368DR,4915,6170,13406,0.610,551
2022-02-07T01:06:53,42.805,6.029,CST-1368DR,4915,6170,13406,0.610,551
2022-02-07T01:09:54,42.805,6.029,CST-1368DR,4915,6170,13405,0.611,551
2022-02-07T01:12:56,42.805,6.029,CST-1368DR,4915,6169,13404,0.611,551
2022-02-07T01:15:57,42.805,6.029,CST-1368DR,4915,6169,13404,0.611,551
2022-02-07T01:18:59,42.805,6.029,CST-1368DR,4915,6168,13402,0.612,551
2022-02-07T01:22:00,42.805,6.029,CST-1368DR,4915,6168,13402,0.612,551
2022-02-07T01:25:02,42.805,6.029,CST-1368DR,4915,6169,13404,0.611,551
2022-02-07T01:28:04,42.805,6.029,CST-1368DR,4915,6170,13405,0.611,551
2022-02-07T01:31:05,42.805,6.029,CST-1368DR,4915,6170,13406,0.610,551
2022-02-07T01:34:07,42.805,6.029,CST-1368DR,4915,6169,13404,0.611,551
2022-02-07T01:37:08,42.805,6.029,CST-1368DR,4915,6170,13405,0.611,551
2022-02-07T01:40:10,42.805,6.029,CST-1368DR,4915,6170,13405,0.611,551
2022-02-07T01:43:12,42.805,6.029,CST-1368DR,4915,6170,13406,0.610,551
2022-02-07T01:46:13,42.805,6.029,CST-1368DR,4915,6169,13404,0.611,551
2022-02-07T01:49:15,42.805,6.029,CST-1368DR,4915,6170,13405,0.611,551
2022-02-07T01:52:16,42.805,6.029,CST-1368DR,4915,6170,13405,0.611,551
2022-02-07T01:55:18,42.805,6.029,CST-1368DR,4915,6169,13404,0.611,551
2022-02-07T01:58:19,42.805,6.029,CST-1368DR,4915,6170,13405,0.611,551
2022-02-07T02:01:21,42.805,6.029,CST-1368DR,4915,6170,13405,0.611,551
2022-02-07T02:04:23,42.805,6.029,CST-1368DR,4915,6169,13404,0.611,551
2022-02-07T02:07:24,42.805,6.029,CST-1368DR,4915,6170,13405,0.611,550
2022-02-07T02:10:26,42.805,6.029,CST-1368DR,4915,6170,13405,0.611,551
2022-02-07T02:13:27,42.805,6.029,CST-1368DR,4915,6170,13405,0.611,551
2022-02-07T02:16:29,42.805,6.029,CST-1368DR,4915,6170,13405,0.611,551
2022-02-07T02:19:30,42.805,6.029,CST-1368DR,4915,6170,13405,0.611,551
2022-02-07T02:22:32,42.805,6.029,CST-1368DR,4915,6170,13405,0.611,551
2022-02-07T02:25:34,42.805,6.029,CST-1368DR,4915,6170,13405,0.611,551
2022-02-07T02:28:35,42.805,6.029,CST-1368DR,4915,6170,13405,0.611,551
2022-02-07T02:31:37,42.805,6.029,CST-1368DR,4915,6169,13404,0.611,551
2022-02-07T02:34:38,42.805,6.029,CST-1368DR,4915,6169,13404,0.611,551
2022-02-07T02:37:40,42.805,6.029,CST-1368DR,4915,6170,13405,0.611,551
2022-02-07T02:40:42,42.805,6.029,CST-1368DR,4915,6170,13405,0.611,551
2022-02-07T02:43:43,42.805,6.029,CST-1368DR,4915,6169,13404,0.611,551
2022-02-07T02:46:45,42.805,6.029,CST-1368DR,4915,6169,13404,0.611,551
2022-02-07T02:49:46,42.805,6.029,CST-1368DR,4915,6170,13405,0.611,550
2022-02-07T02:52:48,42.805,6.029,CST-1368DR,4915,6170,13405,0.611,551
2022-02-07T02:55:49,42.805,6.029,CST-1368DR,4915,6169,13404,0.611,551
2022-02-07T02:58:51,42.805,6.029,CST-1368DR,4915,6170,13405,0.611,551
2022-02-07T03:01:53,42.805,6.029,CST-1368DR,4915,6170,13405,0.611,550
2022-02-07T03:04:54,42.805,6.029,CST-1368DR,4915,6169,13404,0.611,551
2022-02-07T03:07:56,42.805,6.029,CST-1368DR,4915,6169,13404,0.611,551
2022-02-07T03:10:57,42.805,6.029,CST-1368DR,4915,6169,13403,0.611,551
2022-02-07T03:13:59,42.805,6.029,CST-1368DR,4915,6169,13403,0.611,551
2022-02-07T03:17:00,42.805,6.029,CST-1368DR,4915,6170,13405,0.611,551
2022-02-07T03:20:02,42.805,6.029,CST-1368DR,4915,6169,13404,0.611,551
2022-02-07T03:23:04,42.805,6.029,CST-1368DR,4915,6170,13405,0.611,551
2022-02-07T03:26:05,42.805,6.029,CST-1368DR,4915,6169,13403,0.611,551
2022-02-07T03:29:07,42.805,6.029,CST-1368DR,4915,6169,13404,0.611,551
2022-02-07T03:32:08,42.805,6.029,CST-1368DR,4915,6167,13399,0.612,551
2022-02-07T03:35:10,42.805,6.029,CST-1368DR,4915,6169,13403,0.611,551
2022-02-07T03:38:12,42.805,6.029,CST-1368DR,4915,6169,13403,0.611,551
2022-02-07T03:41:13,42.805,6.029,CST-1368DR,4915,6169,13404,0.611,551
2022-02-07T03:44:15,42.805,6.029,CST-1368DR,4914,6170,13407,0.610,551
2022-02-07T03:47:16,42.805,6.029,CST-1368DR,4915,6170,13405,0.611,551
2022-02-07T03:50:18,42.805,6.029,CST-1368DR,4915,6169,13403,0.611,551
2022-02-07T03:53:19,42.805,6.029,CST-1368DR,4915,6169,13403,0.611,551
2022-02-07T03:56:21,42.805,6.029,CST-1368DR,4915,6169,13404,0.611,551
2022-02-07T03:59:23,42.805,6.029,CST-1368DR,4914,6169,13407,0.610,551
2022-02-07T04:02:24,42.805,6.029,CST-1368DR,4915,6170,13405,0.611,550
2022-02-07T04:05:26,42.805,6.029,CST-1368DR,4915,6170,13405,0.611,551
2022-02-07T04:08:27,42.805,6.029,CST-1368DR,4914,6170,13408,0.610,551
2022-02-07T04:11:29,42.805,6.029,CST-1368DR,4915,6169,13404,0.611,551
2022-02-07T04:14:30,42.805,6.029,CST-1368DR,4915,6170,13405,0.611,551
2022-02-07T04:17:32,42.805,6.029,CST-1368DR,4915,6169,13403,0.611,551
2022-02-07T04:20:34,42.805,6.029,CST-1368DR,4914,6170,13409,0.609,551
2022-02-07T04:23:35,42.805,6.029,CST-1368DR,4915,6170,13406,0.610,551
2022-02-07T04:26:37,42.805,6.029,CST-1368DR,4915,6165,13396,0.613,551
2022-02-07T04:29:38,42.805,6.029,CST-1368DR,4914,6167,13403,0.611,551
2022-02-07T04:32:40,42.805,6.029,CST-1368DR,4915,6169,13404,0.611,551
2022-02-07T04:35:42,42.805,6.029,CST-1368DR,4915,6168,13401,0.612,551
2022-02-07T04:38:43,42.805,6.029,CST-1368DR,4914,6170,13408,0.610,551
2022-02-07T04:41:45,42.805,6.029,CST-1368DR,4914,6168,13404,0.611,551
2022-02-07T04:44:46,42.805,6.029,CST-1368DR,4915,6169,13404,0.611,551
2022-02-07T04:47:48,42.805,6.029,CST-1368DR,4915,6169,13403,0.611,551
2022-02-07T04:50:49,42.805,6.029,CST-1368DR,4914,6168,13405,0.611,551
2022-02-07T04:53:51,42.805,6.029,CST-1368DR,4914,6169,13405,0.611,551
2022-02-07T04:56:53,42.805,6.029,CST-1368DR,4914,6169,13406,0.610,551
2022-02-07T04:59:54,42.805,6.029,CST-1368DR,4914,6168,13404,0.611,551
2022-02-07T05:02:56,42.805,6.029,CST-1368DR,4914,6168,13405,0.611,551
2022-02-07T05:05:57,42.805,6.029,CST-1368DR,4914,6169,13405,0.611,551
2022-02-07T05:08:59,42.805,6.029,CST-1368DR,4914,6169,13405,0.611,551
2022-02-07T05:12:01,42.805,6.029,CST-1368DR,4914,6168,13404,0.611,551
2022-02-07T05:15:02,42.805,6.029,CST-1368DR,4914,6168,13405,0.611,551
2022-02-07T05:18:04,42.805,6.029,CST-1368DR,4914,6168,13404,0.611,551
2022-02-07T05:21:05,42.805,6.029,CST-1368DR,4914,6168,13404,0.611,551
2022-02-07T05:24:07,42.805,6.029,CST-1368DR,4914,6169,13406,0.610,551
2022-02-07T05:27:08,42.805,6.029,CST-1368DR,4914,6168,13404,0.611,551
2022-02-07T05:30:10,42.805,6.029,CST-1368DR,4914,6168,13404,0.611,551
2022-02-07T05:33:12,42.805,6.029,CST-1368DR,4914,6168,13404,0.611,551
2022-02-07T05:36:13,42.805,6.029,CST-1368DR,4914,6167,13401,0.612,551
2022-02-07T05:39:15,42.805,6.029,CST-1368DR,4914,6168,13405,0.611,551
2022-02-07T05:42:16,42.805,6.029,CST-1368DR,4914,6168,13404,0.611,551
2022-02-07T05:45:18,42.805,6.029,CST-1368DR,4914,6169,13405,0.611,551
2022-02-07T05:48:20,42.805,6.029,CST-1368DR,4914,6168,13405,0.611,551
2022-02-07T05:51:21,42.805,6.029,CST-1368DR,4914,6168,13404,0.611,551
2022-02-07T05:54:23,42.805,6.029,CST-1368DR,4914,6168,13404,0.611,551
2022-02-07T05:57:24,42.805,6.029,CST-1368DR,4914,6168,13404,0.611,551
2022-02-07T06:00:26,42.805,6.029,CST-1368DR,4914,6168,13404,0.611,551
2022-02-07T06:03:27,42.805,6.029,CST-1368DR,4914,6167,13401,0.612,551
2022-02-07T06:06:29,42.805,6.029,CST-1368DR,4914,6167,13402,0.612,551
2022-02-07T06:09:31,42.805,6.029,CST-1368DR,4914,6168,13404,0.611,551
2022-02-07T06:12:32,42.805,6.029,CST-1368DR,4914,6168,13403,0.611,551
2022-02-07T06:15:34,42.805,6.029,CST-1368DR,4914,6168,13404,0.611,551
2022-02-07T06:18:35,42.805,6.029,CST-1368DR,4914,6168,13404,0.611,551
2022-02-07T06:21:37,42.805,6.029,CST-1368DR,4914,6167,13403,0.611,551
2022-02-07T06:24:38,42.805,6.029,CST-1368DR,4914,6168,13405,0.611,551
2022-02-07T06:27:40,42.805,6.029,CST-1368DR,4914,6167,13402,0.612,551
2022-02-07T06:30:42,42.805,6.029,CST-1368DR,4914,6168,13404,0.611,551
2022-02-07T06:33:43,42.805,6.029,CST-1368DR,4914,6168,13403,0.611,551
2022-02-07T06:36:45,42.805,6.029,CST-1368DR,4914,6168,13404,0.611,551
2022-02-07T06:39:46,42.805,6.029,CST-1368DR,4914,6168,13404,0.611,551
2022-02-07T06:42:48,42.805,6.029,CST-1368DR,4914,6168,13405,0.611,551
2022-02-07T06:45:50,42.805,6.029,CST-1368DR,4914,6168,13404,0.611,551
2022-02-07T06:48:51,42.805,6.029,CST-1368DR,4914,6167,13402,0.612,551
2022-02-07T06:51:53,42.805,6.029,CST-1368DR,4914,6168,13403,0.611,551
2022-02-07T06:54:54,42.805,6.029,CST-1368DR,4914,6166,13400,0.612,551
2022-02-07T06:57:56,42.805,6.029,CST-1368DR,4914,6167,13403,0.611,551
2022-02-07T07:00:57,42.805,6.029,CST-1368DR,4914,6168,13405,0.611,551
2022-02-07T07:03:59,42.805,6.029,CST-1368DR,4914,6168,13404,0.611,551
2022-02-07T07:07:01,42.805,6.029,CST-1368DR,4914,6168,13404,0.611,551
2022-02-07T07:10:02,42.805,6.029,CST-1368DR,4914,6168,13404,0.611,551
2022-02-07T07:13:04,42.805,6.029,CST-1368DR,4914,6169,13405,0.611,551
2022-02-07T07:16:05,42.805,6.029,CST-1368DR,4914,6167,13403,0.611,551
2022-02-07T07:19:07,42.805,6.029,CST-1368DR,4914,6167,13403,0.611,551
2022-02-07T07:22:09,42.805,6.029,CST-1368DR,4914,6168,13405,0.611,551
2022-02-07T07:25:10,42.805,6.029,CST-1368DR,4914,6169,13405,0.611,551
2022-02-07T07:28:12,42.805,6.029,CST-1368DR,4914,6168,13404,0.611,551
2022-02-07T07:31:13,42.805,6.029,CST-1368DR,4914,6168,13404,0.611,551
2022-02-07T07:34:15,42.805,6.029,CST-1368DR,4914,6168,13405,0.611,551
2022-02-07T07:37:16,42.805,6.029,CST-1368DR,4914,6167,13403,0.611,551
2022-02-07T07:40:18,42.805,6.029,CST-1368DR,4914,6168,13404,0.611,551
2022-02-07T07:43:20,42.805,6.029,CST-1368DR,4914,6168,13403,0.611,551
2022-02-07T07:46:21,42.805,6.029,CST-1368DR,4914,6168,13403,0.611,551
2022-02-07T07:49:23,42.805,6.029,CST-1368DR,4914,6168,13404,0.611,551
2022-02-07T07:52:24,42.805,6.029,CST-1368DR,4914,6168,13404,0.611,551
2022-02-07T07:55:26,42.805,6.029,CST-1368DR,4914,6168,13404,0.611,551
2022-02-07T07:58:28,42.805,6.029,CST-1368DR,4914,6168,13404,0.611,551
2022-02-07T08:01:29,42.805,6.029,CST-1368DR,4914,6168,13404,0.611,551
2022-02-07T08:04:31,42.805,6.029,CST-1368DR,4914,6168,13403,0.611,551
2022-02-07T08:07:32,42.805,6.029,CST-1368DR,4914,6168,13404,0.611,551
2022-02-07T08:10:34,42.805,6.029,CST-1368DR,4914,6165,13398,0.613,551
2022-02-07T08:13:35,42.805,6.029,CST-1368DR,4914,6168,13403,0.611,551
2022-02-07T08:16:37,42.805,6.029,CST-1368DR,4914,6168,13404,0.611,551
2022-02-07T08:19:39,42.805,6.029,CST-1368DR,4914,6167,13403,0.611,551
2022-02-07T08:22:40,42.805,6.029,CST-1368DR,4914,6164,13395,0.614,551
2022-02-07T08:25:42,42.805,6.029,CST-1368DR,4914,6166,13399,0.612,551
2022-02-07T08:28:43,42.805,6.029,CST-1368DR,4914,6166,13400,0.612,551
2022-02-07T08:31:45,42.805,6.029,CST-1368DR,4914,6167,13401,0.612,551
2022-02-07T08:34:46,42.805,6.029,CST-1368DR,4914,6167,13403,0.611,550
2022-02-07T08:37:48,42.805,6.029,CST-1368DR,4914,6167,13402,0.612,551
2022-02-07T08:40:50,42.805,6.029,CST-1368DR,4914,6167,13401,0.612,551
2022-02-07T08:43:51,42.805,6.029,CST-1368DR,4914,6167,13403,0.611,551
2022-02-07T08:46:53,42.805,6.029,CST-1368DR,4914,6164,13394,0.614,551
2022-02-07T08:49:54,42.805,6.029,CST-1368DR,4914,6167,13402,0.612,551
2022-02-07T08:52:56,42.805,6.029,CST-1368DR,4914,6167,13402,0.612,551
2022-02-07T08:55:58,42.805,6.029,CST-1368DR,4914,6167,13401,0.612,551
2022-02-07T08:58:59,42.805,6.029,CST-1368DR,4914,6166,13400,0.612,551
2022-02-07T09:02:01,42.805,6.029,CST-1368DR,4914,6165,13397,0.613,551
2022-02-07T09:05:02,42.805,6.029,CST-1368DR,4914,6168,13403,0.611,551
2022-02-07T09:08:04,42.805,6.029,CST-1368DR,4914,6167,13401,0.612,551
2022-02-07T09:11:05,42.805,6.029,CST-1368DR,4914,6166,13399,0.612,551
2022-02-07T09:14:07,42.805,6.029,CST-1368DR,4914,6167,13401,0.612,551
2022-02-07T09:17:09,42.805,6.029,CST-1368DR,4914,6167,13401,0.612,551
2022-02-07T09:20:10,42.805,6.029,CST-1368DR,4914,6166,13400,0.612,551
2022-02-07T09:23:12,42.805,6.029,CST-1368DR,4914,6163,13393,0.614,551
2022-02-07T09:26:13,42.805,6.029,CST-1368DR,4914,6166,13400,0.612,551
2022-02-07T09:29:15,42.805,6.029,CST-1368DR,4914,6167,13401,0.612,551
2022-02-07T09:32:16,42.805,6.029,CST-1368DR,4914,6166,13400,0.612,551
2022-02-07T09:35:18,42.805,6.029,CST-1368DR,4914,6166,13400,0.612,551
2022-02-07T09:38:20,42.805,6.029,CST-1368DR,4914,6166,13400,0.612,551
2022-02-07T09:41:21,42.805,6.029,CST-1368DR,4914,6167,13401,0.612,551
2022-02-07T09:44:23,42.805,6.029,CST-1368DR,4914,6167,13401,0.612,551
2022-02-07T09:47:24,42.805,6.029,CST-1368DR,4914,6163,13392,0.615,551
2022-02-07T09:50:26,42.805,6.029,CST-1368DR,4914,6166,13400,0.612,551
2022-02-07T09:53:28,42.805,6.029,CST-1368DR,4914,6166,13400,0.612,551
2022-02-07T09:56:29,42.805,6.029,CST-1368DR,4914,6166,13399,0.612,550
2022-02-07T09:59:31,42.805,6.029,CST-1368DR,4914,6162,13390,0.615,551
2022-02-07T10:02:32,42.805,6.029,CST-1368DR,4914,6167,13402,0.612,551
2022-02-07T10:05:34,42.805,6.029,CST-1368DR,4914,6167,13401,0.612,550
2022-02-07T10:08:35,42.805,6.029,CST-1368DR,4914,6166,13399,0.612,551
2022-02-07T10:11:37,42.805,6.029,CST-1368DR,4914,6167,13401,0.612,551
2022-02-07T10:14:39,42.805,6.029,CST-1368DR,4914,6165,13397,0.613,551
2022-02-07T10:17:40,42.805,6.029,CST-1368DR,4914,6166,13399,0.612,551
2022-02-07T10:20:42,42.805,6.029,CST-1368DR,4914,6165,13397,0.613,551
2022-02-07T10:23:43,42.805,6.029,CST-1368DR,4914,6163,13394,0.614,551
2022-02-07T10:26:45,42.805,6.029,CST-1368DR,4914,6166,13400,0.612,551
2022-02-07T10:29:46,42.805,6.029,CST-1368DR,4914,6165,13398,0.613,551
2022-02-07T10:32:48,42.805,6.029,CST-1368DR,4914,6166,13399,0.612,551
2022-02-07T10:35:50,42.805,6.029,CST-1368DR,4914,6165,13397,0.613,551
2022-02-07T10:38:51,42.805,6.029,CST-1368DR,4914,6163,13394,0.614,551
2022-02-07T10:41:53,42.805,6.029,CST-1368DR,4914,6165,13397,0.613,551
2022-02-07T10:44:54,42.805,6.029,CST-1368DR,4914,6164,13396,0.613,551
2022-02-07T10:47:56,42.805,6.029,CST-1368DR,4914,6164,13396,0.613,551
2022-02-07T10:50:58,42.805,6.029,CST-1368DR,4914,6165,13397,0.613,551
2022-02-07T10:53:59,42.805,6.029,CST-1368DR,4914,6164,13394,0.614,551
2022-02-07T10:57:01,42.805,6.029,CST-1368DR,4914,6165,13397,0.613,551
2022-02-07T11:00:02,42.805,6.029,CST-1368DR,4914,6163,13393,0.614,551
2022-02-07T11:03:04,42.805,6.029,CST-1368DR,4914,6165,13398,0.613,551
2022-02-07T11:06:05,42.805,6.029,CST-1368DR,4914,6164,13396,0.613,551
2022-02-07T11:09:07,42.805,6.029,CST-1368DR,4914,6163,13394,0.614,551
2022-02-07T11:12:09,42.805,6.029,CST-1368DR,4914,6165,13398,0.613,551
2022-02-07T11:15:10,42.805,6.029,CST-1368DR,4914,6165,13397,0.613,551
2022-02-07T11:18:12,42.805,6.029,CST-1368DR,4914,6163,13393,0.614,551
2022-02-07T11:21:13,42.805,6.029,CST-1368DR,4914,6164,13395,0.614,551
2022-02-07T11:24:15,42.805,6.029,CST-1368DR,4914,6165,13397,0.613,551
2022-02-07T11:27:17,42.805,6.029,CST-1368DR,4914,6165,13398,0.613,551
2022-02-07T11:30:18,42.805,6.029,CST-1368DR,4914,6165,13398,0.613,551
2022-02-07T11:33:20,42.805,6.029,CST-1368DR,4914,6165,13397,0.613,551
2022-02-07T11:36:21,42.805,6.029,CST-1368DR,4914,6164,13396,0.613,551
2022-02-07T11:39:23,42.805,6.029,CST-1368DR,4914,6164,13395,0.614,551
2022-02-07T11:42:24,42.805,6.029,CST-1368DR,4914,6164,13396,0.613,551
2022-02-07T11:45:26,42.805,6.029,CST-1368DR,4914,6165,13397,0.613,551
2022-02-07T11:48:28,42.805,6.029,CST-1368DR,4914,6164,13396,0.613,551
2022-02-07T11:51:29,42.805,6.029,CST-1368DR,4914,6163,13394,0.614,551
2022-02-07T11:54:31,42.805,6.029,CST-1368DR,4914,6164,13396,0.613,551
2022-02-07T11:57:32,42.805,6.029,CST-1368DR,4914,6161,13390,0.615,551
2022-02-07T12:00:34,42.805,6.029,CST-1368DR,4914,6163,13394,0.614,551
2022-02-07T12:03:36,42.805,6.029,CST-1368DR,4914,6164,13396,0.613,551
2022-02-07T12:06:37,42.805,6.029,CST-1368DR,4914,6165,13398,0.613,551
2022-02-07T12:09:39,42.805,6.029,CST-1368DR,4914,6165,13398,0.613,551
2022-02-07T12:12:40,42.805,6.029,CST-1368DR,4914,6165,13397,0.613,551
2022-02-07T12:15:42,42.805,6.029,CST-1368DR,4914,6165,13397,0.613,551
2022-02-07T12:18:43,42.805,6.029,CST-1368DR,4914,6165,13397,0.613,551
2022-02-07T12:21:45,42.805,6.029,CST-1368DR,4914,6165,13397,0.613,551
2022-02-07T12:24:47,42.805,6.029,CST-1368DR,4914,6164,13395,0.614,551
2022-02-07T12:27:48,42.805,6.029,CST-1368DR,4914,6164,13396,0.613,551
2022-02-07T12:30:50,42.805,6.029,CST-1368DR,4914,6165,13398,0.613,550
2022-02-07T12:33:51,42.805,6.029,CST-1368DR,4914,6165,13397,0.613,551
2022-02-07T12:36:53,42.805,6.029,CST-1368DR,4914,6165,13397,0.613,550
2022-02-07T12:39:54,42.805,6.029,CST-1368DR,4914,6163,13394,0.614,551
2022-02-07T12:42:56,42.805,6.029,CST-1368DR,4914,6165,13397,0.613,551
2022-02-07T12:45:58,42.805,6.029,CST-1368DR,4914,6165,13398,0.613,551
2022-02-07T12:48:59,42.805,6.029,CST-1368DR,4914,6164,13395,0.614,551
2022-02-07T12:52:01,42.805,6.029,CST-1368DR,4914,6164,13395,0.614,551
2022-02-07T12:55:02,42.805,6.029,CST-1368DR,4914,6161,13389,0.615,551
2022-02-07T12:58:04,42.805,6.029,CST-1368DR,4914,6164,13394,0.614,551
2022-02-07T13:01:06,42.805,6.029,CST-1368DR,4914,6164,13395,0.614,551
2022-02-07T13:04:07,42.805,6.029,CST-1368DR,4914,6159,13385,0.617,551
2022-02-07T13:07:09,42.805,6.029,CST-1368DR,4914,6164,13396,0.613,551
2022-02-07T13:10:10,42.805,6.029,CST-1368DR,4914,6164,13395,0.614,551
2022-02-07T13:13:12,42.805,6.029,CST-1368DR,4914,6163,13393,0.614,551
2022-02-07T13:16:13,42.805,6.029,CST-1368DR,4914,6165,13397,0.613,551
2022-02-07T13:19:15,42.805,6.029,CST-1368DR,4914,6165,13397,0.613,551
2022-02-07T13:22:17,42.805,6.029,CST-1368DR,4914,6164,13395,0.614,551
2022-02-07T13:25:18,42.805,6.029,CST-1368DR,4914,6163,13392,0.615,551
2022-02-07T13:28:20,42.805,6.029,CST-1368DR,4914,6165,13397,0.613,551
2022-02-07T13:31:21,42.805,6.029,CST-1368DR,4914,6164,13396,0.613,551
2022-02-07T13:34:23,42.805,6.029,CST-1368DR,4914,6165,13397,0.613,551
2022-02-07T13:37:25,42.805,6.029,CST-1368DR,4914,6164,13396,0.613,551
2022-02-07T13:40:26,42.805,6.029,CST-1368DR,4914,6165,13397,0.613,551
2022-02-07T13:43:28,42.805,6.029,CST-1368DR,4914,6164,13395,0.614,551
2022-02-07T13:46:29,42.805,6.029,CST-1368DR,4914,6164,13396,0.613,551
2022-02-07T13:49:31,42.805,6.029,CST-1368DR,4914,6164,13394,0.614,551
2022-02-07T13:52:32,42.805,6.029,CST-1368DR,4914,6164,13395,0.614,551
2022-02-07T13:55:34,42.805,6.029,CST-1368DR,4914,6163,13393,0.614,551
2022-02-07T13:58:36,42.805,6.029,CST-1368DR,4914,6164,13396,0.613,551
2022-02-07T14:01:37,42.805,6.029,CST-1368DR,4914,6164,13395,0.614,551
2022-02-07T14:04:39,42.805,6.029,CST-1368DR,4914,6163,13394,0.614,551
2022-02-07T14:07:40,42.805,6.029,CST-1368DR,4914,6164,13396,0.613,551
2022-02-07T14:10:42,42.805,6.029,CST-1368DR,4914,6165,13397,0.613,550
2022-02-07T14:13:43,42.805,6.029,CST-1368DR,4914,6164,13396,0.613,551
2022-02-07T14:16:45,42.805,6.029,CST-1368DR,4914,6165,13398,0.613,551
2022-02-07T14:19:47,42.805,6.029,CST-1368DR,4914,6164,13394,0.614,551
2022-02-07T14:22:48,42.805,6.029,CST-1368DR,4913,6164,13398,0.613,551
2022-02-07T14:25:50,42.805,6.029,CST-1368DR,4913,6160,13390,0.615,551
2022-02-07T14:28:51,42.805,6.029,CST-1368DR,4913,6164,13399,0.612,551
2022-02-07T14:31:53,42.805,6.029,CST-1368DR,4913,6163,13396,0.613,551
2022-02-07T14:34:55,42.805,6.029,CST-1368DR,4914,6165,13397,0.613,551
2022-02-07T14:37:56,42.805,6.029,CST-1368DR,4914,6163,13394,0.614,550
2022-02-07T14:40:58,42.805,6.029,CST-1368DR,4913,6164,13398,0.613,551
2022-02-07T14:43:59,42.805,6.029,CST-1368DR,4913,6163,13395,0.614,551
2022-02-07T14:47:01,42.805,6.029,CST-1368DR,4913,6164,13398,0.613,551
2022-02-07T14:50:02,42.805,6.029,CST-1368DR,4913,6164,13398,0.613,551
2022-02-07T14:53:04,42.805,6.029,CST-1368DR,4913,6163,13396,0.613,551
2022-02-07T14:56:06,42.805,6.029,CST-1368DR,4913,6164,13399,0.612,551
2022-02-07T14:59:07,42.805,6.029,CST-1368DR,4913,6164,13397,0.613,551
2022-02-07T15:02:09,42.805,6.029,CST-1368DR,4913,6162,13394,0.614,551
2022-02-07T15:05:10,42.805,6.029,CST-1368DR,4913,6163,13396,0.613,551
2022-02-07T15:08:12,42.805,6.029,CST-1368DR,4913,6163,13396,0.613,551
2022-02-07T15:11:13,42.805,6.029,CST-1368DR,4913,6163,13396,0.613,551
2022-02-07T15:14:15,42.805,6.029,CST-1368DR,4913,6164,13397,0.613,551
2022-02-07T15:17:17,42.805,6.029,CST-1368DR,4913,6164,13398,0.613,551
2022-02-07T15:20:18,42.805,6.029,CST-1368DR,4913,6164,13397,0.613,551
2022-02-07T15:23:20,42.805,6.029,CST-1368DR,4913,6164,13398,0.613,551
2022-02-07T15:26:21,42.805,6.029,CST-1368DR,4913,6164,13398,0.613,550
2022-02-07T15:29:23,42.805,6.029,CST-1368DR,4913,6164,13398,0.613,551
2022-02-07T15:32:25,42.805,6.029,CST-1368DR,4913,6164,13399,0.612,551
2022-02-07T15:35:26,42.805,6.029,CST-1368DR,4913,6165,13399,0.612,551
2022-02-07T15:38:28,42.805,6.029,CST-1368DR,4913,6161,13392,0.615,551
2022-02-07T15:41:29,42.805,6.029,CST-1368DR,4913,6164,13399,0.612,551
2022-02-07T15:44:31,42.805,6.029,CST-1368DR,4913,6163,13396,0.613,551
2022-02-07T15:47:32,42.805,6.029,CST-1368DR,4913,6164,13398,0.613,551
2022-02-07T15:50:34,42.805,6.029,CST-1368DR,4913,6164,13398,0.613,551
2022-02-07T15:53:36,42.805,6.029,CST-1368DR,4913,6164,13397,0.613,551
2022-02-07T15:56:37,42.805,6.029,CST-1368DR,4913,6164,13398,0.613,551
2022-02-07T15:59:39,42.805,6.029,CST-1368DR,4913,6162,13393,0.614,551
2022-02-07T16:02:40,42.805,6.029,CST-1368DR,4913,6161,13391,0.615,551
2022-02-07T16:05:42,42.805,6.029,CST-1368DR,4913,6163,13396,0.613,551
2022-02-07T16:08:44,42.805,6.029,CST-1368DR,4913,6164,13397,0.613,551
2022-02-07T16:11:45,42.805,6.029,CST-1368DR,4913,6163,13395,0.614,551
2022-02-07T16:14:47,42.805,6.029,CST-1368DR,4913,6164,13397,0.613,551
2022-02-07T16:17:48,42.805,6.029,CST-1368DR,4913,6158,13384,0.617,551
2022-02-07T16:20:50,42.805,6.029,CST-1368DR,4913,6164,13398,0.613,551
2022-02-07T16:23:51,42.805,6.029,CST-1368DR,4913,6163,13396,0.613,551
2022-02-07T16:26:53,42.805,6.029,CST-1368DR,4913,6163,13396,0.613,551
2022-02-07T16:29:55,42.805,6.029,CST-1368DR,4913,6164,13398,0.613,551
2022-02-07T16:32:56,42.805,6.029,CST-1368DR,4913,6164,13398,0.613,551
2022-02-07T16:35:58,42.805,6.029,CST-1368DR,4913,6164,13399,0.612,551
2022-02-07T16:38:59,42.805,6.029,CST-1368DR,4913,6164,13398,0.613,551
2022-02-07T16:42:01,42.805,6.029,CST-1368DR,4913,6163,13396,0.613,551
2022-02-07T16:45:03,42.805,6.029,CST-1368DR,4913,6164,13397,0.613,551
2022-02-07T16:48:04,42.805,6.029,CST-1368DR,4913,6165,13399,0.612,551
2022-02-07T16:51:06,42.805,6.029,CST-1368DR,4913,6165,13399,0.612,551